Regional Weather Roundup
Issued by NWS

Home | Current Version | Previous Version | Text Only | Print | Product List | Glossary Off
Versions: 1 2 3 4 5 6 7 8 9 10 11 12 13 14 15 16 17 18 19 20 21 22 23 24 25 26 27 28 29 30 31 32 33 34 35 36 37 38 39 40 41 42 43 44 45 46 47 48 49 50

000
ASUS43 KFSD 060510
RWRSD

WEATHER ROUNDUP FOR SOUTH DAKOTA
NATIONAL WEATHER SERVICE SIOUX FALLS SD
1100 PM CST THU MAR 05 2015

NOTE: "FAIR" INDICATES FEW OR NO CLOUDS BELOW 12,000 FEET WITH NO
SIGNIFICANT WEATHER AND/OR OBSTRUCTIONS TO VISIBILITY.


SDZ001>005-009-010-012>017-060600-
NORTHWEST AND NORTH CENTRAL SOUTH DAKOTA

CITY           SKY/WX    TMP DP  RH WIND       PRES   REMARKS
BUFFALO          N/A     28  13  53 W9        30.02S WCI  19
FAITH            N/A     28  11  48 W8        30.09F WCI  20
MOBRIDGE       CLEAR     23  14  68 SE5       30.06S WCI  17
$$

SDZ012>016-024>037-041>051-057-063-072>074-060600-
SOUTHWEST AND SOUTH CENTRAL SOUTH DAKOTA

CITY           SKY/WX    TMP DP  RH WIND       PRES   REMARKS
RAPID CTY ARPT CLEAR     28  15  58 W5        30.13F WCI  23
PIERRE         CLEAR     25  18  74 SW8       30.11R WCI  16
CUSTER         CLEAR     26  13  57 SW3       30.12S
ELLSWORTH AFB  CLEAR     28  16  59 W5        30.12S WCI  23
PHILIP         CLEAR     22  15  75 W9        30.14R WCI  12
PINE RIDGE     CLEAR     27  19  72 SW8       30.19R WCI  19
SPEARFISH      FAIR      36  16  44 W9        30.12F
WINNER         FAIR      31  19  61 W12       30.14S WCI  22
$$

SDZ004>011-016>023-039-040-060600-
NORTHEAST SOUTH DAKOTA

CITY           SKY/WX    TMP DP  RH WIND       PRES   REMARKS
ABERDEEN       CLEAR      7   3  84 S7        30.10F WCI  -5
WATERTOWN      CLEAR     15   5  64 S9        30.10F WCI   3
SISSETON         N/A     11   5  77 S7        30.10  WCI   0
$$

SDZ017-020-022-023-036>040-048>070-060600-
SOUTHEAST SOUTH DAKOTA

CITY           SKY/WX    TMP DP  RH WIND       PRES   REMARKS
SIOUX FALLS    CLEAR     22   8  55 S16       30.17F WCI   8
HURON          CLEAR     21   7  54 S10       30.12F WCI  10
CHAMBERLAIN    CLEAR     27  17  64 W9        30.12S WCI  18
MITCHELL       CLEAR     21   8  57 S9        30.15F WCI  11
YANKTON        CLEAR     28   9  43 S6        30.20F WCI  22
$$

ABBREVIATIONS USED IN REMARKS
   TC - TEMPERATURE IN CELSIUS
  WCI - WIND CHILL INDEX
   HX - HEAT INDEX
  VSB - VISIBILITY




USA.gov is the U.S. government's official web portal to all federal, state and local government web resources and services.